Starlink 32502

operational
NORAD ID: 62116 Int'l Des: 2024-222 Owner: SPXS Country: US Constellation: starlink
LEOCIRCULAR

About Starlink 32502

Description loading...

Live Position

Loading 3D Globe...

Upcoming Passes

Altitude History

Altitude vs Time

uPlot chart will show altitude changes over time

Two-Line Element Set

1 62116U 24222C 25304.00182888 .00037169 00000-0 13512-2 0 9997
2 62116 43.0046 148.7031 0002925 287.0295 73.0236 15.27632612 52979
Epoch: Oct 31, 2025 • Age: 24 hours

Current Status

Altitude 488.5 km
Velocity 7.62 km/s
Sub-Earth Point -25.78°S, 54.69°W
Launch Date Nov 27, 2024
Age 0.9 years
Type internet

Technical Details

Classification Payload
Mass 730.00 kg
Dry Mass 700.00 kg
Total Mass 730.00 kg
Length 0.30 m
Diameter 4.10 m
Span 29.00 m
Shape Box + pan
Manufacturer SPXS
Bus Type Starlink V2M
Phase Status In Orbit
Owner/State SPXS/US

Large Constellations

Loading constellations...